LZSAA LBSF-LBPD

Flight info

Callsign LZSAA
Flight time 0h 28m
Altitude 8000
Route LBSF DCT BLO DCT PDV
Aircraft DC3/M-V/N

Departure

Time 2026-05-08 13:24
Airport Sofia Airport (LBSF)

Arrival

Time 2026-05-08 13:52
Airport Plovdiv International Airport (LBPD)
Time Latitude Longitude Altitude Speed Heading
2026-05-08 13:13 42.69026 23.41198 1760 ft 2 kts 32°
2026-05-08 13:13 42.69048 23.41212 1759 ft 4 kts 10°
2026-05-08 13:13 42.69060 23.41214 1759 ft 0 kts 356°
2026-05-08 13:14 42.69062 23.41214 1759 ft 0 kts 354°
2026-05-08 13:14 42.69079 23.41210 1760 ft 6 kts 346°
2026-05-08 13:14 42.69164 23.41171 1761 ft 14 kts 339°
2026-05-08 13:14 42.69265 23.41138 1760 ft 14 kts 359°
2026-05-08 13:15 42.69358 23.41180 1758 ft 13 kts 17°
2026-05-08 13:15 42.69446 23.41212 1758 ft 12 kts 19°
2026-05-08 13:15 42.69494 23.41291 1757 ft 10 kts 91°
2026-05-08 13:15 42.69483 23.41380 1757 ft 9 kts 102°
2026-05-08 13:16 42.69466 23.41471 1755 ft 9 kts 98°
2026-05-08 13:16 42.69457 23.41561 1754 ft 9 kts 97°
2026-05-08 13:16 42.69450 23.41640 1754 ft 7 kts 94°
2026-05-08 13:16 42.69446 23.41711 1753 ft 7 kts 94°
2026-05-08 13:17 42.69443 23.41783 1753 ft 7 kts 93°
2026-05-08 13:17 42.69442 23.41847 1753 ft 6 kts 89°
2026-05-08 13:17 42.69443 23.41903 1753 ft 5 kts 89°
2026-05-08 13:17 42.69443 23.41954 1753 ft 5 kts 89°
2026-05-08 13:18 42.69443 23.42000 1753 ft 4 kts 89°
2026-05-08 13:18 42.69443 23.42034 1754 ft 2 kts 95°
2026-05-08 13:18 42.69442 23.42049 1754 ft 0 kts 96°
2026-05-08 13:18 42.69434 23.42138 1754 ft 23 kts 96°
2026-05-08 13:19 42.69413 23.42410 1754 ft 31 kts 94°
2026-05-08 13:19 42.69393 23.42722 1750 ft 34 kts 96°
2026-05-08 13:19 42.69374 23.43041 1751 ft 33 kts 93°
2026-05-08 13:19 42.69364 23.43352 1755 ft 30 kts 94°
2026-05-08 13:20 42.69346 23.43609 1757 ft 24 kts 94°
2026-05-08 13:20 42.69333 23.43803 1757 ft 18 kts 95°
2026-05-08 13:20 42.69347 23.43919 1757 ft 5 kts 56°
2026-05-08 13:20 42.69348 23.43922 1757 ft 0 kts 47°
2026-05-08 13:21 42.69349 23.43923 1757 ft 0 kts 47°
2026-05-08 13:21 42.69349 23.43924 1757 ft 0 kts 46°
2026-05-08 13:22 42.69413 23.43949 1757 ft 16 kts 358°
2026-05-08 13:22 42.69505 23.43908 1757 ft 5 kts 310°
2026-05-08 13:22 42.69511 23.43892 1757 ft 0 kts 282°
2026-05-08 13:22 42.69520 23.43816 1758 ft 30 kts 276°
2026-05-08 13:23 42.69552 23.43228 1751 ft 90 kts 270°
2026-05-08 13:23 42.69609 23.42242 1766 ft 113 kts 272°
2026-05-08 13:23 42.69654 23.41156 1913 ft 113 kts 270°
2026-05-08 13:23 42.69682 23.40110 2144 ft 113 kts 270°
2026-05-08 13:24 42.69756 23.39037 2458 ft 115 kts 286°
2026-05-08 13:24 42.70285 23.38352 2851 ft 110 kts 350°
2026-05-08 13:24 42.70949 23.38819 3044 ft 119 kts 66°
2026-05-08 13:24 42.70884 23.39931 3277 ft 119 kts 109°
2026-05-08 13:25 42.70604 23.40970 3563 ft 122 kts 115°
2026-05-08 13:25 42.70320 23.42073 3821 ft 126 kts 102°
2026-05-08 13:25 42.70150 23.43256 4081 ft 130 kts 102°
2026-05-08 13:25 42.69937 23.44474 4295 ft 135 kts 108°
2026-05-08 13:26 42.69684 23.45681 4609 ft 132 kts 94°
2026-05-08 13:26 42.69568 23.46964 4813 ft 137 kts 101°
2026-05-08 13:26 42.69465 23.48213 5160 ft 131 kts 96°
2026-05-08 13:26 42.69388 23.49444 5465 ft 131 kts 98°
2026-05-08 13:27 42.69199 23.50678 5682 ft 135 kts 103°
2026-05-08 13:27 42.69124 23.51930 6020 ft 131 kts 93°
2026-05-08 13:27 42.69057 23.53166 6280 ft 134 kts 99°
2026-05-08 13:27 42.68889 23.54419 6551 ft 134 kts 99°
2026-05-08 13:28 42.68865 23.55684 6871 ft 133 kts 92°
2026-05-08 13:28 42.68866 23.56936 7149 ft 134 kts 87°
2026-05-08 13:28 42.69146 23.58193 7311 ft 145 kts 75°
2026-05-08 13:28 42.69371 23.59494 7677 ft 135 kts 85°
2026-05-08 13:29 42.69046 23.60715 7679 ft 149 kts 122°
2026-05-08 13:29 42.68465 23.61852 7938 ft 145 kts 129°
2026-05-08 13:29 42.67952 23.63120 7786 ft 168 kts 103°
2026-05-08 13:29 42.67900 23.64713 7962 ft 165 kts 91°
2026-05-08 13:30 42.67778 23.66214 8249 ft 156 kts 97°
2026-05-08 13:30 42.67700 23.67701 8368 ft 162 kts 96°
2026-05-08 13:30 42.67638 23.69260 8452 ft 166 kts 99°
2026-05-08 13:30 42.67511 23.70813 8655 ft 162 kts 99°
2026-05-08 13:31 42.67370 23.72163 8853 ft 160 kts 99°
2026-05-08 13:31 42.67309 23.72956 8940 ft 161 kts 98°
2026-05-08 13:31 42.67158 23.74508 8919 ft 172 kts 103°
2026-05-08 13:31 42.66955 23.76131 8886 ft 179 kts 99°
2026-05-08 13:32 42.66795 23.77821 8920 ft 181 kts 100°
2026-05-08 13:32 42.66620 23.79524 8927 ft 183 kts 101°
2026-05-08 13:32 42.66426 23.81252 8936 ft 185 kts 101°
2026-05-08 13:32 42.66053 23.82916 8910 ft 184 kts 120°
2026-05-08 13:33 42.65459 23.84444 8937 ft 184 kts 120°
2026-05-08 13:33 42.64820 23.85943 8941 ft 184 kts 122°
2026-05-08 13:33 42.64140 23.87436 8941 ft 185 kts 123°
2026-05-08 13:33 42.63444 23.88891 8938 ft 185 kts 124°
2026-05-08 13:34 42.62714 23.90356 8937 ft 185 kts 126°
2026-05-08 13:34 42.61980 23.91781 8936 ft 185 kts 126°
2026-05-08 13:34 42.61224 23.93214 8942 ft 185 kts 127°
2026-05-08 13:34 42.60464 23.94621 8940 ft 186 kts 127°
2026-05-08 13:35 42.59696 23.96025 8944 ft 186 kts 128°
2026-05-08 13:35 42.58913 23.97430 8943 ft 186 kts 128°
2026-05-08 13:35 42.58116 23.98826 8937 ft 187 kts 130°
2026-05-08 13:35 42.57315 24.00208 8880 ft 189 kts 130°
2026-05-08 13:36 42.56500 24.01616 8936 ft 185 kts 128°
2026-05-08 13:36 42.55715 24.02994 8939 ft 186 kts 129°
2026-05-08 13:36 42.54908 24.04371 8933 ft 186 kts 130°
2026-05-08 13:36 42.54118 24.05762 8935 ft 186 kts 129°
2026-05-08 13:37 42.53325 24.07128 8937 ft 186 kts 129°
2026-05-08 13:37 42.52525 24.08502 8937 ft 186 kts 129°
2026-05-08 13:37 42.51731 24.09888 8938 ft 186 kts 129°
2026-05-08 13:37 42.50920 24.11265 8942 ft 186 kts 130°
2026-05-08 13:38 42.50131 24.12645 8941 ft 186 kts 129°
2026-05-08 13:38 42.49328 24.14014 8937 ft 186 kts 130°
2026-05-08 13:38 42.48532 24.15392 8942 ft 186 kts 128°
2026-05-08 13:38 42.47729 24.16765 8935 ft 186 kts 130°
2026-05-08 13:39 42.46925 24.18149 8940 ft 186 kts 129°
2026-05-08 13:39 42.46119 24.19530 8936 ft 186 kts 130°
2026-05-08 13:39 42.45294 24.20864 8950 ft 185 kts 131°
2026-05-08 13:39 42.44466 24.22211 8890 ft 188 kts 131°
2026-05-08 13:40 42.43619 24.23602 8770 ft 193 kts 131°
2026-05-08 13:40 42.42765 24.25015 8675 ft 194 kts 130°
2026-05-08 13:40 42.41916 24.26430 8595 ft 195 kts 130°
2026-05-08 13:40 42.41055 24.27875 8526 ft 194 kts 130°
2026-05-08 13:41 42.40212 24.29289 8454 ft 195 kts 130°
2026-05-08 13:41 42.39366 24.30717 8378 ft 195 kts 130°
2026-05-08 13:41 42.38512 24.32149 8314 ft 194 kts 130°
2026-05-08 13:41 42.37660 24.33574 8198 ft 197 kts 130°
2026-05-08 13:42 42.36790 24.35033 7951 ft 203 kts 130°
2026-05-08 13:42 42.35882 24.36561 7674 ft 208 kts 130°
2026-05-08 13:42 42.34974 24.38092 7384 ft 211 kts 130°
2026-05-08 13:42 42.34049 24.39651 7144 ft 211 kts 129°
2026-05-08 13:43 42.33136 24.41190 6904 ft 210 kts 129°
2026-05-08 13:43 42.32215 24.42745 6669 ft 209 kts 130°
2026-05-08 13:43 42.31323 24.44261 6401 ft 207 kts 129°
2026-05-08 13:43 42.30425 24.45771 6102 ft 206 kts 129°
2026-05-08 13:44 42.29522 24.47295 5790 ft 206 kts 129°
2026-05-08 13:44 42.28636 24.48797 5478 ft 206 kts 129°
2026-05-08 13:44 42.27740 24.50305 5197 ft 205 kts 128°
2026-05-08 13:44 42.26848 24.51811 4895 ft 205 kts 129°
2026-05-08 13:45 42.25950 24.53335 4612 ft 204 kts 128°
2026-05-08 13:45 42.25073 24.54805 4376 ft 201 kts 128°
2026-05-08 13:45 42.24194 24.56297 4135 ft 201 kts 129°
2026-05-08 13:45 42.23333 24.57747 3943 ft 198 kts 128°
2026-05-08 13:46 42.22477 24.59191 3723 ft 198 kts 129°
2026-05-08 13:46 42.21611 24.60656 3487 ft 198 kts 128°
2026-05-08 13:46 42.20745 24.62102 3258 ft 198 kts 128°
2026-05-08 13:46 42.19892 24.63547 3067 ft 195 kts 128°
2026-05-08 13:47 42.19036 24.64980 2929 ft 192 kts 127°
2026-05-08 13:47 42.18201 24.66375 2777 ft 191 kts 129°
2026-05-08 13:47 42.17429 24.67594 3329 ft 150 kts 132°
2026-05-08 13:47 42.16731 24.68652 3447 ft 151 kts 130°
2026-05-08 13:48 42.15975 24.69770 3267 ft 168 kts 135°
2026-05-08 13:48 42.15116 24.70877 2969 ft 176 kts 136°
2026-05-08 13:48 42.14221 24.72078 2450 ft 183 kts 133°
2026-05-08 13:48 42.13412 24.73320 2007 ft 174 kts 129°
2026-05-08 13:49 42.12728 24.74555 1838 ft 149 kts 125°
2026-05-08 13:49 42.12194 24.75512 1593 ft 113 kts 127°
2026-05-08 13:49 42.11773 24.76257 1327 ft 90 kts 123°
2026-05-08 13:49 42.11399 24.76944 1208 ft 91 kts 127°
2026-05-08 13:50 42.10990 24.77617 1184 ft 93 kts 127°
2026-05-08 13:50 42.10593 24.78319 1145 ft 95 kts 126°
2026-05-08 13:50 42.10203 24.79036 1132 ft 94 kts 122°
2026-05-08 13:50 42.09813 24.79754 1120 ft 93 kts 129°
2026-05-08 13:51 42.09393 24.80452 1076 ft 96 kts 125°
2026-05-08 13:51 42.08985 24.81185 987 ft 97 kts 126°
2026-05-08 13:51 42.08583 24.81906 877 ft 97 kts 126°
2026-05-08 13:51 42.08181 24.82627 751 ft 94 kts 127°
2026-05-08 13:52 42.07792 24.83301 644 ft 89 kts 124°
2026-05-08 13:52 42.07435 24.83939 593 ft 81 kts 126°
2026-05-08 13:52 42.07132 24.84481 598 ft 61 kts 127°
2026-05-08 13:52 42.06910 24.84859 604 ft 43 kts 128°
2026-05-08 13:53 42.06761 24.85131 609 ft 30 kts 127°
2026-05-08 13:53 42.06645 24.85331 612 ft 23 kts 130°
2026-05-08 13:53 42.06563 24.85516 615 ft 25 kts 100°
2026-05-08 13:53 42.06598 24.85721 617 ft 20 kts 17°
2026-05-08 13:54 42.06704 24.85623 614 ft 21 kts 313°
2026-05-08 13:54 42.06791 24.85477 611 ft 19 kts 301°
2026-05-08 13:54 42.06897 24.85274 608 ft 34 kts 307°
2026-05-08 13:54 42.07071 24.84967 602 ft 46 kts 307°
2026-05-08 13:55 42.07261 24.84621 597 ft 43 kts 310°
2026-05-08 13:55 42.07420 24.84336 591 ft 30 kts 307°
2026-05-08 13:55 42.07560 24.84291 589 ft 12 kts 39°
2026-05-08 13:56 42.07615 24.84351 590 ft 0 kts 39°